period_start,C,m1,H,J0,J1,J2,J3,J4,J5,JA,JB,JC,JD,JJ,JK,JN,#
2014-03-10 00:00:14,0.14,9.71,0.00,20.72,26.17,29.09,6.13,32.29,1026.38,2040.92,1232.00,1628.00,1765.26,349.64,330.12,34.62,0000 0000 0000 0000 000000
2014-03-10 00:01:15,0.10,9.71,0.00,20.74,26.17,29.10,6.18,32.13,1026.35,2040.90,1231.92,1627.98,1765.10,350.42,329.99,34.63,0000 0000 0000 0000 000000
2014-03-10 00:02:15,0.09,9.71,0.00,20.74,26.17,29.09,6.17,32.33,1026.34,2040.85,1231.67,1627.98,1765.03,350.23,329.79,34.63,0000 0000 0000 0000 000000
2014-03-10 00:03:15,0.17,9.71,0.00,20.75,26.17,29.10,6.13,32.33,1026.34,2040.89,1231.34,1627.92,1765.01,349.81,329.35,34.64,0000 0000 0000 0000 000000
2014-03-10 00:04:15,0.35,9.71,0.00,20.74,26.17,29.12,6.20,32.29,1026.33,2040.90,1231.14,1627.70,1765.00,350.71,330.12,34.64,0000 0000 0000 0000 000000
2014-03-10 00:05:16,0.29,9.72,0.00,20.75,26.17,29.11,6.14,32.38,1026.35,2040.92,1231.05,1627.36,1765.00,350.15,329.72,34.65,0000 0000 0000 0000 000000
2014-03-10 00:06:16,0.32,9.72,0.00,20.75,26.17,29.11,6.13,32.21,1026.35,2040.95,1231.02,1627.16,1764.96,350.39,329.94,34.66,0000 0000 0000 0000 000000
2014-03-10 00:07:16,0.17,9.72,0.00,20.75,26.17,29.16,6.26,32.38,1026.34,2040.93,1231.00,1627.06,1764.94,350.85,330.15,34.66,0000 0000 0000 0000 000000
2014-03-10 00:08:16,0.02,9.72,0.00,20.76,26.17,29.14,6.10,32.29,1026.32,2040.94,1230.98,1627.02,1764.74,349.31,329.18,34.67,0000 0000 0000 0000 000000
2014-03-10 00:09:17,0.15,9.72,0.00,20.77,26.17,29.14,6.26,32.25,1026.29,2040.97,1230.95,1627.00,1764.40,350.90,330.38,34.67,0000 0000 0000 0000 000000
2014-03-10 00:10:17,0.19,9.72,0.00,20.77,26.17,29.15,6.17,32.13,1026.21,2040.95,1230.70,1627.00,1764.17,350.00,329.51,34.68,0000 0000 0000 0000 000000
2014-03-10 00:11:17,0.26,9.72,0.00,20.77,26.17,29.14,6.22,32.29,1026.18,2040.95,1230.41,1627.00,1764.06,350.91,330.34,34.69,0000 0000 0000 0000 000000
2014-03-10 00:12:17,0.22,9.72,0.00,20.77,26.17,29.14,6.13,32.17,1026.15,2040.96,1230.26,1626.99,1764.02,348.93,328.38,34.69,0000 0000 0000 0000 000000
2014-03-10 00:13:18,0.14,9.73,0.00,20.77,26.17,29.14,6.08,32.29,1026.10,2040.96,1230.10,1626.94,1764.00,350.19,329.66,34.70,0000 0000 0000 0000 000000
2014-03-10 00:14:18,0.14,9.73,0.00,20.77,26.17,29.12,6.12,32.29,1026.04,2040.95,1230.03,1626.71,1764.00,350.56,330.28,34.70,0000 0000 0000 0000 000000
2014-03-10 00:15:18,0.18,9.73,0.00,20.78,26.17,29.14,6.21,32.21,1026.05,2040.96,1230.01,1626.50,1763.99,350.78,330.18,34.71,0000 0000 0000 0000 000000
2014-03-10 00:16:18,0.15,9.73,0.00,20.79,26.17,29.13,6.11,32.33,1026.08,2040.97,1230.00,1626.26,1763.98,349.39,329.01,34.71,0000 0000 0000 0000 000000
2014-03-10 00:17:18,0.19,9.73,0.00,20.79,26.17,29.16,6.10,32.21,1025.94,2040.96,1229.89,1626.11,1763.79,350.08,329.47,34.72,0000 0000 0000 0000 000000
2014-03-10 00:18:19,0.23,9.73,0.00,20.79,26.17,29.17,6.22,32.21,1025.97,2040.95,1229.51,1626.05,1763.43,350.44,329.82,34.73,0000 0000 0000 0000 000000
2014-03-10 00:19:19,0.44,9.73,0.00,20.79,26.17,29.15,6.10,32.38,1026.05,2040.97,1229.21,1626.02,1763.21,349.30,328.77,34.73,0000 0000 0000 0000 000000
2014-03-10 00:20:19,0.32,9.73,0.00,20.79,26.17,29.20,6.15,32.08,1026.16,2040.96,1229.07,1626.00,1763.09,349.69,329.70,34.74,0000 0000 0000 0000 000000
2014-03-10 00:21:19,0.14,9.74,0.00,20.79,26.17,29.18,6.17,32.25,1026.20,2040.97,1229.02,1626.00,1763.03,349.44,328.92,34.74,0000 0000 0000 0000 000000
2014-03-10 00:22:20,0.06,9.74,0.00,20.81,26.17,29.14,6.15,32.08,1026.22,2040.96,1229.00,1625.97,1763.01,349.64,328.81,34.75,0000 0000 0000 0000 000000
2014-03-10 00:23:20,0.04,9.74,0.00,20.80,26.17,29.18,6.16,32.21,1026.28,2040.97,1229.00,1625.91,1762.99,348.83,328.39,34.76,0000 0000 0000 0000 000000
2014-03-10 00:24:20,0.07,9.74,0.00,20.81,26.17,29.16,6.03,32.33,1026.19,2040.97,1228.95,1625.70,1762.99,349.94,329.41,34.76,0000 0000 0000 0000 000000
2014-03-10 00:25:20,0.14,9.74,0.00,20.82,26.17,29.16,6.20,32.46,1026.15,2040.95,1228.85,1625.40,1762.94,350.82,330.20,34.77,0000 0000 0000 0000 000000
2014-03-10 00:26:21,0.22,9.74,0.00,20.82,26.17,29.09,6.20,32.13,1026.11,2040.94,1228.77,1625.19,1762.84,351.03,330.10,34.77,0000 0000 0000 0000 000000
2014-03-10 00:27:21,0.27,9.74,0.00,20.82,26.18,29.12,6.13,31.92,1026.04,2040.88,1228.62,1625.08,1762.53,350.07,329.54,34.78,0000 0000 0000 0000 000000
2014-03-10 00:28:21,0.19,9.74,0.00,20.84,26.18,29.14,6.23,31.92,1026.00,2040.92,1228.28,1625.03,1762.26,350.08,329.44,34.78,0000 0000 0000 0000 000000
2014-03-10 00:29:22,0.39,9.74,0.00,20.84,26.18,29.16,6.21,32.25,1025.96,2040.93,1228.12,1625.01,1762.13,349.93,329.12,34.79,0000 0000 0000 0000 000000
2014-03-10 00:30:22,0.22,9.75,0.00,20.83,26.18,29.17,5.98,32.67,1025.92,2040.89,1228.04,1625.00,1762.05,349.86,328.86,34.80,0000 0000 0000 0000 000000
2014-03-10 00:31:22,0.05,9.75,0.00,20.84,26.18,29.17,6.11,32.63,1026.06,2040.85,1227.98,1624.98,1762.02,348.84,328.29,34.80,0000 0000 0000 0000 000000
2014-03-10 00:32:22,0.01,9.75,0.00,20.83,26.19,29.16,6.17,32.38,1026.20,2040.80,1227.98,1624.97,1761.99,351.06,330.43,34.81,0000 0000 0000 0000 000000
2014-03-10 00:33:23,-0.05,9.75,0.00,20.84,26.19,29.16,6.02,32.33,1026.32,2040.84,1227.91,1624.96,1761.97,348.19,328.19,34.81,0000 0000 0000 0000 000000
2014-03-10 00:34:23,0.13,9.75,0.00,20.84,26.19,29.18,6.26,32.13,1026.34,2040.86,1227.64,1624.69,1761.90,350.86,330.27,34.82,0000 0000 0000 0000 000000
2014-03-10 00:35:23,0.37,9.75,0.00,20.84,26.19,29.19,6.15,32.29,1026.37,2040.84,1227.31,1624.31,1761.68,349.88,329.36,34.83,0000 0000 0000 0000 000000
2014-03-10 00:36:23,0.57,9.75,0.00,20.84,26.19,29.19,6.20,32.08,1026.38,2040.82,1227.13,1624.18,1761.37,350.49,329.94,34.83,0000 0000 0000 0000 000000
2014-03-10 00:37:24,0.31,9.75,0.00,20.85,26.20,29.14,6.30,32.38,1026.38,2040.75,1227.05,1624.10,1761.16,350.75,330.18,34.84,0000 0000 0000 0000 000000
2014-03-10 00:38:24,0.10,9.75,0.00,20.85,26.19,29.19,6.13,32.08,1026.38,2040.78,1227.02,1624.05,1761.06,349.75,328.79,34.84,0000 0000 0000 0000 000000
2014-03-10 00:39:24,0.10,9.75,0.00,20.85,26.20,29.17,6.23,32.25,1026.38,2040.87,1227.00,1624.02,1761.02,350.62,329.77,34.85,0000 0000 0000 0000 000000
2014-03-10 00:40:24,0.12,9.76,0.00,20.86,26.20,29.16,6.02,32.21,1026.38,2040.83,1226.99,1624.00,1761.00,348.83,328.82,34.85,0000 0000 0000 0000 000000
2014-03-10 00:41:25,-0.01,9.76,0.00,20.87,26.20,29.17,6.05,32.08,1026.38,2040.79,1226.97,1623.99,1761.00,349.07,328.57,34.86,0000 0000 0000 0000 000000
2014-03-10 00:42:25,-0.03,9.76,0.00,20.88,26.20,29.18,6.02,32.08,1026.38,2040.73,1226.66,1623.98,1760.95,349.88,329.02,34.87,0000 0000 0000 0000 000000
2014-03-10 00:43:25,0.20,9.76,0.00,20.89,26.20,29.17,6.17,32.21,1026.38,2040.73,1226.27,1623.80,1760.81,349.89,329.56,34.87,0000 0000 0000 0000 000000
2014-03-10 00:44:25,0.42,9.76,0.00,20.89,26.20,29.17,6.14,32.08,1026.38,2040.71,1226.10,1623.45,1760.46,350.04,329.57,34.88,0000 0000 0000 0000 000000
2014-03-10 00:45:26,0.46,9.76,0.00,20.89,26.20,29.18,6.20,32.46,1026.38,2040.71,1226.03,1623.19,1760.20,350.36,329.86,34.88,0000 0000 0000 0000 000000
2014-03-10 00:46:26,0.31,9.76,0.00,20.89,26.20,29.18,6.26,32.21,1026.38,2040.64,1225.99,1623.07,1760.10,350.33,329.56,34.89,0000 0000 0000 0000 000000
2014-03-10 00:47:26,0.05,9.76,0.00,20.91,26.20,29.18,6.11,32.29,1026.38,2040.72,1225.93,1623.02,1760.05,349.85,329.48,34.90,0000 0000 0000 0000 000000
2014-03-10 00:48:27,0.21,9.76,0.00,20.92,26.20,29.19,6.11,32.21,1026.38,2040.75,1225.82,1623.00,1760.01,349.60,328.77,34.90,0000 0000 0000 0000 000000
2014-03-10 00:49:27,0.16,9.77,0.00,20.92,26.20,29.21,6.15,32.29,1026.38,2040.77,1225.54,1623.00,1760.00,349.81,329.21,34.91,0000 0000 0000 0000 000000
2014-03-10 00:50:27,0.18,9.77,0.00,20.92,26.20,29.17,6.17,32.08,1026.38,2040.77,1225.29,1623.00,1760.00,349.86,329.45,34.91,0000 0000 0000 0000 000000
2014-03-10 00:51:28,0.14,9.77,0.00,20.92,26.21,29.19,6.18,32.42,1026.38,2040.78,1225.37,1622.99,1760.00,349.85,329.23,34.92,0000 0000 0000 0000 000000
2014-03-10 00:52:28,0.03,9.77,0.00,20.92,26.21,29.19,6.15,32.21,1026.38,2040.82,1225.19,1622.97,1759.97,349.40,328.72,34.93,0000 0000 0000 0000 000000
2014-03-10 00:53:28,0.18,9.77,0.00,20.92,26.22,29.21,6.23,32.13,1026.38,2040.79,1225.07,1622.88,1759.81,350.84,330.26,34.93,0000 0000 0000 0000 000000
2014-03-10 00:54:29,0.21,9.77,0.00,20.93,26.22,29.18,6.17,32.13,1026.38,2040.70,1225.02,1622.50,1759.45,349.29,328.70,34.94,0000 0000 0000 0000 000000
2014-03-10 00:55:29,0.23,9.77,0.00,20.94,26.22,29.17,6.08,32.42,1026.38,2040.51,1225.00,1622.19,1759.19,349.49,328.88,34.94,0000 0000 0000 0000 000000
2014-03-10 00:56:29,0.09,9.77,0.00,20.95,26.22,29.17,6.05,32.29,1026.38,2040.50,1224.98,1622.07,1759.09,350.56,330.07,34.95,0000 0000 0000 0000 000000
2014-03-10 00:57:29,0.05,9.77,0.00,20.96,26.22,29.14,6.20,32.33,1026.38,2040.48,1224.95,1622.02,1759.03,349.60,329.03,34.95,0000 0000 0000 0000 000000
2014-03-10 00:58:30,0.10,9.77,0.00,20.97,26.22,29.17,6.13,32.17,1026.38,2040.58,1224.72,1622.00,1759.00,349.64,328.94,34.96,0000 0000 0000 0000 000000
2014-03-10 00:59:30,0.28,9.77,0.00,20.97,26.22,29.15,6.28,32.17,1026.38,2040.65,1224.57,1622.00,1758.99,350.99,330.48,34.97,0000 0000 0000 0000 000000
2014-03-10 01:00:30,0.21,9.78,0.00,20.97,26.22,29.17,6.15,32.04,1026.38,2040.69,1224.32,1622.00,1758.97,349.21,328.83,34.97,0000 0000 0000 0000 000000
2014-03-10 01:01:31,0.14,8.15,0.00,20.99,26.23,29.17,2.23,10.63,1026.38,2042.50,1995.23,2197.99,2387.67,144.22,128.06,0.00,0000 0000 0000 0000 000002
2014-03-10 01:02:31,0.14,0.00,0.00,20.99,26.25,29.18,6.11,31.17,1026.38,2045.99,3535.31,3349.55,3645.97,348.61,328.10,0.00,0000 0000 0000 0000 000002
2014-03-10 01:03:31,0.14,0.00,0.00,20.99,26.25,29.21,6.27,31.42,1026.37,2045.99,3533.43,3349.17,3646.16,350.69,329.96,0.01,0000 0000 0000 0000 000002
2014-03-10 01:04:32,0.14,0.00,0.00,21.00,26.25,29.18,6.14,31.13,1026.38,2045.99,3532.11,3348.65,3645.88,349.78,329.10,0.01,0000 0000 0000 0000 000002
2014-03-10 01:05:32,0.14,0.00,0.00,21.02,26.25,29.19,6.09,31.13,1026.36,2045.97,3531.14,3348.25,3645.34,349.80,329.50,0.00,0000 0000 0000 0000 000000
2014-03-10 01:06:32,0.14,0.00,0.00,21.01,26.25,29.18,6.24,31.13,1026.33,2045.98,3530.44,3348.02,3644.96,350.49,329.73,0.01,0000 0000 0000 0000 000000
2014-03-10 01:07:32,0.15,0.00,0.00,21.02,26.25,29.18,6.27,30.83,1026.32,2045.98,3529.76,3347.51,3644.39,350.48,329.72,0.01,0000 0000 0000 0000 000000
2014-03-10 01:08:33,0.14,0.00,0.00,21.03,26.25,29.19,6.24,30.88,1026.33,2045.98,3529.18,3347.18,3643.95,350.29,329.53,0.02,0000 0000 0000 0000 000000
2014-03-10 01:09:33,0.14,0.00,0.00,21.03,26.25,29.17,6.02,30.75,1026.31,2045.98,3528.51,3346.88,3643.37,348.96,328.26,0.02,0000 0000 0000 0000 000000
2014-03-10 01:10:33,0.15,0.00,0.00,21.04,26.25,29.18,6.17,30.79,1026.31,2045.97,3527.97,3346.38,3642.95,350.71,330.16,0.03,0000 0000 0000 0000 000000
2014-03-10 01:11:33,0.15,0.00,0.00,21.04,26.26,29.18,6.23,30.75,1026.34,2045.98,3527.34,3346.08,3642.38,349.93,329.32,0.03,0000 0000 0000 0000 000000
2014-03-10 01:12:34,0.15,0.00,0.00,21.04,26.26,29.18,6.19,30.83,1026.34,2045.96,3526.71,3345.67,3642.01,350.42,329.63,0.04,0000 0000 0000 0000 000000
2014-03-10 01:13:34,0.16,0.01,0.00,21.06,26.27,29.19,6.04,30.75,1026.27,2045.96,3526.18,3345.25,3641.41,348.71,327.65,0.05,0000 0000 0000 0000 000000
2014-03-10 01:14:34,0.16,0.01,0.00,21.07,26.27,29.19,6.09,30.88,1026.28,2045.97,3525.53,3345.03,3641.13,349.23,328.79,0.05,0000 0000 0000 0000 000000
2014-03-10 01:15:34,0.16,0.01,0.00,21.07,26.27,29.22,6.01,30.50,1026.20,2045.96,3524.99,3344.53,3640.61,349.76,329.12,0.06,0000 0000 0000 0000 000000
2014-03-10 01:16:35,0.17,0.01,0.00,21.09,26.27,29.23,6.16,30.79,1026.18,2045.96,3524.39,3344.18,3640.22,350.71,329.82,0.06,0000 0000 0000 0000 000000
2014-03-10 01:17:35,0.17,0.01,0.00,21.09,26.27,29.23,6.13,30.92,1026.09,2045.96,3523.88,3343.89,3639.81,349.77,329.10,0.07,0000 0000 0000 0000 000000
2014-03-10 01:18:35,0.17,0.01,0.00,21.09,26.27,29.22,6.17,30.71,1026.03,2045.97,3523.31,3343.37,3639.31,351.11,330.13,0.08,0000 0000 0000 0000 000000
2014-03-10 01:19:35,0.18,0.01,0.00,21.09,26.27,29.19,6.13,30.83,1026.03,2045.95,3522.72,3343.12,3638.94,350.55,329.60,0.08,0000 0000 0000 0000 000000
2014-03-10 01:20:36,0.18,0.01,0.00,21.09,26.28,29.22,6.08,30.67,1026.05,2045.94,3522.22,3342.64,3638.40,350.45,329.52,0.09,0000 0000 0000 0000 000000
2014-03-10 01:21:36,0.18,0.01,0.00,21.10,26.29,29.21,6.05,30.58,1026.01,2045.96,3521.58,3342.23,3638.06,349.83,328.92,0.09,0000 0000 0000 0000 000000
2014-03-10 01:22:36,0.19,0.02,0.00,21.12,26.30,29.21,6.13,30.50,1026.05,2045.96,3521.19,3342.05,3637.50,350.19,329.39,0.10,0000 0000 0000 0000 000000
2014-03-10 01:23:36,0.18,0.02,0.00,21.12,26.30,29.21,6.16,30.71,1026.10,2045.94,3520.66,3341.60,3637.17,350.53,329.84,0.10,0000 0000 0000 0000 000000
2014-03-10 01:24:37,0.18,0.02,0.00,21.13,26.30,29.20,6.08,30.67,1026.31,2045.93,3520.24,3341.22,3636.66,349.37,328.72,0.11,0000 0000 0000 0000 000000
2014-03-10 01:25:37,0.18,0.02,0.00,21.14,26.30,29.22,6.17,30.50,1026.27,2045.91,3519.69,3340.96,3636.22,350.71,329.78,0.12,0000 0000 0000 0000 000000
2014-03-10 01:26:37,0.18,0.02,0.00,21.15,26.30,29.21,6.16,30.79,1026.25,2045.90,3519.25,3340.43,3635.73,349.92,329.02,0.12,0000 0000 0000 0000 000000
2014-03-10 01:27:38,0.18,0.02,0.00,21.16,26.31,29.23,6.05,30.67,1026.31,2045.80,3518.69,3340.14,3635.27,350.50,329.57,0.13,0000 0000 0000 0000 000000
2014-03-10 01:28:38,0.17,0.02,0.00,21.17,26.32,29.18,6.14,30.58,1026.26,2045.66,3518.24,3339.72,3634.88,349.64,328.22,0.13,0000 0000 0000 0000 000000
2014-03-10 01:29:38,0.14,0.02,0.00,21.17,26.32,29.25,6.21,31.13,1026.18,2045.43,3517.63,3339.28,3634.34,349.54,328.61,0.14,0000 0000 0000 0000 000000
2014-03-10 01:30:38,0.11,0.02,0.00,21.19,26.32,29.20,6.13,30.75,1026.14,2045.24,3517.12,3338.99,3634.00,351.03,329.99,0.15,0000 0000 0000 0000 000000
2014-03-10 01:31:39,0.11,0.02,0.00,21.19,26.32,29.22,6.02,30.88,1026.12,2045.17,3516.45,3338.43,3633.41,349.66,328.99,0.15,0000 0000 0000 0000 000000
2014-03-10 01:32:39,0.13,0.02,0.00,21.19,26.32,29.23,6.09,30.88,1026.17,2045.14,3516.02,3338.15,3633.12,349.83,328.86,0.16,0000 0000 0000 0000 000000
2014-03-10 01:33:39,0.13,0.02,0.00,21.20,26.32,29.22,6.16,30.67,1026.16,2045.13,3515.44,3337.93,3632.62,349.36,328.44,0.16,0000 0000 0000 0000 000000
2014-03-10 01:34:40,0.16,0.03,0.00,21.22,26.34,29.19,6.13,30.71,1026.24,2045.13,3515.00,3337.41,3632.23,350.45,329.71,0.17,0000 0000 0000 0000 000000
2014-03-10 01:35:40,0.19,0.03,0.00,21.24,26.34,29.19,6.00,30.96,1026.16,2045.11,3514.40,3337.12,3631.89,350.03,328.88,0.18,0000 0000 0000 0000 000000
2014-03-10 01:36:40,0.15,0.03,0.00,21.24,26.35,29.22,6.10,30.75,1026.07,2045.07,3514.00,3336.70,3631.34,350.24,329.15,0.18,0000 0000 0000 0000 000000
2014-03-10 01:37:41,0.19,0.03,0.00,21.24,26.35,29.18,6.16,30.79,1026.13,2045.09,3513.41,3336.26,3631.08,350.61,329.52,0.19,0000 0000 0000 0000 000000
2014-03-10 01:38:41,0.17,0.03,0.00,21.25,26.35,29.18,6.08,30.63,1026.11,2045.06,3512.93,3336.03,3630.53,350.09,329.01,0.19,0000 0000 0000 0000 000000
2014-03-10 01:39:41,0.16,0.03,0.00,21.25,26.35,29.22,6.13,30.63,1026.20,2045.05,3512.38,3335.64,3630.17,349.85,328.82,0.20,0000 0000 0000 0000 000000
2014-03-10 01:40:41,0.21,0.03,0.00,21.27,26.36,29.21,6.26,30.75,1026.26,2045.07,3512.05,3335.24,3629.61,350.64,329.56,0.20,0000 0000 0000 0000 000000
2014-03-10 01:41:42,0.18,0.03,0.00,21.28,26.37,29.16,6.18,30.75,1026.19,2045.04,3511.49,3335.04,3629.22,351.10,329.50,0.21,0000 0000 0000 0000 000000
2014-03-10 01:42:42,0.13,0.03,0.00,21.29,26.37,29.17,6.14,30.67,1026.21,2045.03,3511.01,3334.55,3628.97,350.47,329.32,0.22,0000 0000 0000 0000 000000
2014-03-10 01:43:42,0.21,0.04,0.00,21.29,26.37,29.18,6.14,30.63,1026.08,2045.02,3510.40,3334.20,3628.45,350.03,329.18,0.22,0000 0000 0000 0000 000000
2014-03-10 01:44:42,0.18,0.04,0.00,21.31,26.37,29.19,6.11,30.67,1026.08,2045.02,3509.96,3333.97,3628.16,349.47,328.36,0.23,0000 0000 0000 0000 000000
2014-03-10 01:45:43,0.16,0.04,0.00,21.32,26.39,29.19,6.16,30.50,1026.08,2045.02,3509.36,3333.47,3627.69,350.70,329.52,0.23,0000 0000 0000 0000 000000
2014-03-10 01:46:43,0.20,0.04,0.00,21.33,26.40,29.16,6.17,30.63,1026.02,2045.00,3508.83,3333.17,3627.26,350.00,328.82,0.24,0000 0000 0000 0000 000000
2014-03-10 01:47:43,0.17,0.04,0.00,21.34,26.40,29.14,6.15,30.54,1026.01,2045.01,3508.31,3332.86,3626.93,350.14,328.83,0.25,0000 0000 0000 0000 000000
2014-03-10 01:48:44,0.20,0.04,0.00,21.35,26.40,29.16,6.23,30.67,1025.96,2045.00,3507.90,3332.34,3626.37,350.04,328.81,0.25,0000 0000 0000 0000 000000
2014-03-10 01:49:44,0.20,0.04,0.00,21.35,26.40,29.15,6.08,30.50,1025.90,2045.00,3507.35,3332.09,3626.11,350.03,328.81,0.26,0000 0000 0000 0000 000000
2014-03-10 01:50:44,0.14,0.04,0.00,21.35,26.40,29.21,6.08,30.54,1025.91,2045.00,3506.88,3331.72,3625.67,350.60,329.04,0.26,0000 0000 0000 0000 000000
2014-03-10 01:51:45,0.21,0.04,0.00,21.37,26.42,29.19,6.13,30.54,1025.93,2045.00,3506.35,3331.30,3625.25,349.77,328.74,0.27,0000 0000 0000 0000 000000
2014-03-10 01:52:45,0.18,0.05,0.00,21.38,26.42,29.23,6.05,30.50,1025.93,2045.00,3505.93,3331.08,3624.93,350.34,329.48,0.27,0000 0000 0000 0000 000000
2014-03-10 01:53:45,0.17,0.05,0.00,21.39,26.42,29.19,6.16,30.58,1025.94,2045.00,3505.35,3330.60,3624.38,350.10,328.81,0.28,0000 0000 0000 0000 000000
2014-03-10 01:54:45,0.21,0.05,0.00,21.39,26.42,29.17,6.02,30.58,1025.97,2045.00,3504.89,3330.22,3624.02,349.14,327.92,0.29,0000 0000 0000 0000 000000
2014-03-10 01:55:46,0.20,0.05,0.00,21.40,26.43,29.16,6.03,30.38,1025.94,2045.00,3504.33,3329.89,3623.41,350.58,329.26,0.29,0000 0000 0000 0000 000000
2014-03-10 01:56:46,0.20,0.05,0.00,21.42,26.44,29.18,5.96,30.58,1025.93,2045.00,3503.90,3329.36,3623.10,349.11,327.65,0.30,0000 0000 0000 0000 000000
2014-03-10 01:57:46,0.20,0.05,0.00,21.42,26.45,29.18,6.05,30.63,1025.96,2045.00,3503.33,3329.13,3622.52,349.83,328.53,0.30,0000 0000 0000 0000 000000
2014-03-10 01:58:46,0.17,0.05,0.00,21.44,26.45,29.20,6.11,30.71,1025.96,2045.00,3502.78,3328.78,3622.19,350.12,328.78,0.31,0000 0000 0000 0000 000000
2014-03-10 01:59:47,0.20,0.05,0.00,21.44,26.45,29.21,6.02,30.63,1026.00,2045.00,3502.28,3328.31,3621.94,349.57,328.28,0.32,0000 0000 0000 0000 000000
2014-03-10 02:00:47,0.18,0.05,0.00,21.44,26.45,29.22,6.10,30.63,1026.12,2045.00,3501.74,3328.06,3621.38,349.55,328.29,0.32,0000 0000 0000 0000 000000
2014-03-10 02:01:47,0.18,0.06,0.00,21.46,26.47,29.21,5.89,30.58,1026.07,2045.00,3501.25,3327.58,3621.09,349.35,327.98,0.33,0000 0000 0000 0000 000000
2014-03-10 02:02:47,0.20,0.06,0.00,21.47,26.47,29.18,6.02,30.58,1026.01,2045.00,3500.70,3327.21,3620.57,349.33,328.03,0.33,0000 0000 0000 0000 000000
2014-03-10 02:03:48,0.21,0.06,0.00,21.47,26.47,29.19,6.03,30.58,1025.95,2045.00,3500.24,3327.04,3620.21,349.10,327.79,0.34,0000 0000 0000 0000 000000
2014-03-10 02:04:48,0.14,0.06,0.00,21.49,26.48,29.19,6.11,30.46,1025.98,2045.00,3499.72,3326.69,3619.92,350.55,329.13,0.35,0000 0000 0000 0000 000000
2014-03-10 02:05:48,0.20,0.06,0.00,21.49,26.49,29.21,5.98,30.63,1025.98,2044.99,3499.25,3326.26,3619.36,349.10,327.78,0.35,0000 0000 0000 0000 000000
2014-03-10 02:06:48,0.18,0.06,0.00,21.50,26.50,29.21,6.13,30.46,1025.98,2044.99,3498.65,3326.01,3619.04,349.96,328.57,0.36,0000 0000 0000 0000 000000
2014-03-10 02:07:49,0.19,0.06,0.00,21.52,26.50,29.22,6.13,30.54,1026.01,2044.98,3498.20,3325.49,3618.47,350.20,328.90,0.36,0000 0000 0000 0000 000000
2014-03-10 02:08:49,0.20,0.06,0.00,21.52,26.50,29.23,6.09,30.63,1026.01,2044.97,3497.58,3325.18,3618.16,350.19,328.46,0.37,0000 0000 0000 0000 000000
2014-03-10 02:09:49,0.17,0.06,0.00,21.53,26.51,29.24,6.10,30.63,1025.96,2044.94,3497.14,3324.83,3617.73,350.35,328.61,0.37,0000 0000 0000 0000 000000
2014-03-10 02:10:50,0.19,0.07,0.00,21.54,26.52,29.25,6.02,30.50,1025.95,2044.92,3496.54,3324.32,3617.26,350.01,328.53,0.38,0000 0000 0000 0000 000000
2014-03-10 02:11:50,0.18,0.07,0.00,21.56,26.52,29.24,6.03,30.75,1025.92,2044.90,3496.11,3324.10,3616.89,349.22,328.29,0.39,0000 0000 0000 0000 000000
2014-03-10 02:12:50,0.15,0.07,0.00,21.58,26.52,29.24,6.18,30.75,1025.91,2044.92,3495.51,3323.71,3616.35,350.80,329.29,0.39,0000 0000 0000 0000 000000
2014-03-10 02:13:50,0.23,0.07,0.00,21.59,26.53,29.25,6.19,30.83,1025.92,2044.94,3495.06,3323.26,3616.03,349.61,328.12,0.40,0000 0000 0000 0000 000000
2014-03-10 02:14:50,0.21,0.07,0.00,21.60,26.54,29.28,6.17,30.71,1025.95,2044.85,3494.44,3323.01,3615.48,350.10,328.59,0.40,0000 0000 0000 0000 000000
2014-03-10 02:15:51,0.10,0.07,0.00,21.61,26.55,29.26,6.08,30.63,1025.90,2044.81,3493.99,3322.49,3615.15,349.82,328.30,0.41,0000 0000 0000 0000 000000
2014-03-10 02:16:51,0.17,0.07,0.00,21.61,26.55,29.26,6.31,30.75,1025.93,2044.71,3493.39,3322.17,3614.63,350.97,329.38,0.42,0000 0000 0000 0000 000000
2014-03-10 02:17:51,0.16,0.07,0.00,21.61,26.55,29.27,6.06,30.42,1025.98,2044.78,3493.06,3321.95,3614.24,350.07,328.55,0.42,0000 0000 0000 0000 000000
2014-03-10 02:18:52,0.15,0.07,0.00,21.62,26.57,29.28,6.17,30.50,1025.99,2044.56,3492.47,3321.41,3613.94,350.27,328.78,0.43,0000 0000 0000 0000 000000
2014-03-10 02:19:52,0.03,0.07,0.00,21.64,26.57,29.28,5.97,30.38,1025.98,2044.47,3492.00,3321.13,3613.41,349.50,327.86,0.43,0000 0000 0000 0000 000000
2014-03-10 02:20:52,0.16,0.07,0.00,21.64,26.57,29.28,6.03,30.42,1025.94,2044.34,3491.41,3320.66,3613.12,350.11,328.38,0.44,0000 0000 0000 0000 000000
2014-03-10 02:21:52,0.08,0.08,0.00,21.65,26.57,29.28,6.14,30.79,1025.97,2044.33,3491.03,3320.25,3612.66,350.27,328.69,0.44,0000 0000 0000 0000 000000
2014-03-10 02:22:52,0.21,0.08,0.00,21.67,26.58,29.30,6.08,30.67,1025.92,2044.31,3490.47,3320.06,3612.24,349.56,328.00,0.45,0000 0000 0000 0000 000000
2014-03-10 02:23:53,0.12,0.08,0.00,21.67,26.59,29.30,6.09,30.58,1025.92,2044.29,3489.97,3319.69,3612.00,349.86,328.11,0.46,0000 0000 0000 0000 000000
2014-03-10 02:24:53,0.16,0.08,0.00,21.67,26.60,29.31,6.14,30.50,1025.92,2044.27,3489.39,3319.26,3611.49,349.64,328.07,0.46,0000 0000 0000 0000 000000
2014-03-10 02:25:53,0.18,0.08,0.00,21.67,26.60,29.31,6.14,30.38,1025.92,2044.23,3488.99,3319.02,3611.16,350.72,328.76,0.47,0000 0000 0000 0000 000000
2014-03-10 02:26:53,0.11,0.08,0.00,21.69,26.61,29.31,5.93,30.63,1025.95,2044.13,3488.41,3318.48,3610.67,349.37,327.80,0.47,0000 0000 0000 0000 000000
2014-03-10 02:27:54,0.18,0.08,0.00,21.69,26.62,29.33,6.18,30.50,1025.96,2044.07,3487.95,3318.17,3610.26,350.21,328.59,0.48,0000 0000 0000 0000 000000
2014-03-10 02:28:54,0.13,0.08,0.00,21.70,26.62,29.34,6.08,30.88,1025.95,2044.04,3487.35,3317.76,3609.90,350.67,329.01,0.49,0000 0000 0000 0000 000000
2014-03-10 02:29:54,0.19,0.08,0.00,21.71,26.62,29.35,6.02,31.04,1025.96,2044.02,3486.66,3317.29,3609.34,349.68,328.19,0.49,0000 0000 0000 0000 000000
2014-03-10 02:30:54,0.22,0.08,0.00,21.72,26.63,29.32,6.17,31.04,1026.00,2044.01,3486.20,3316.95,3608.95,349.59,327.86,0.50,0000 0000 0000 0000 000000
2014-03-10 02:31:54,0.19,0.09,0.00,21.73,26.64,29.30,6.17,31.17,1025.99,2044.01,3485.61,3316.43,3608.39,350.04,328.72,0.50,0000 0000 0000 0000 000000
2014-03-10 02:32:55,0.23,0.09,0.00,21.74,26.65,29.33,6.14,30.67,1025.92,2044.01,3485.14,3316.13,3608.10,350.93,329.20,0.51,0000 0000 0000 0000 000000
2014-03-10 02:33:55,0.16,0.09,0.00,21.75,26.65,29.36,6.13,30.83,1025.92,2044.01,3484.49,3315.78,3607.56,350.04,328.59,0.52,0000 0000 0000 0000 000000
2014-03-10 02:34:55,0.23,0.09,0.00,21.76,26.65,29.36,6.13,30.58,1025.90,2044.01,3484.01,3315.30,3607.19,350.28,328.56,0.52,0000 0000 0000 0000 000000
2014-03-10 02:35:55,0.19,0.09,0.00,21.77,26.67,29.38,6.09,30.92,1025.91,2044.01,3483.41,3315.05,3606.77,349.24,327.58,0.53,0000 0000 0000 0000 000000
2014-03-10 02:36:56,0.19,0.09,0.00,21.77,26.67,29.38,5.99,30.83,1025.90,2044.00,3482.91,3314.50,3606.30,349.46,327.78,0.53,0000 0000 0000 0000 000000